| time (UTC) | temp F | wind direction | speed knots | gust knots | rain 1hr in | rain 24hr in | rain mn in | humidity % | barometer mb |
| 20260502200110 | 65 | 148 | 0.9 | 1.7 | 0.00 | 0.00 | 0.00 | 61 | 1016.1 |
| 20260502194110 | 66 | 124 | 0.0 | 1.7 | 0.00 | 0.00 | 0.00 | 61 | 1016.1 |
| 20260502193110 | 67 | 110 | 0.0 | 0.9 | 0.00 | 0.00 | 0.00 | 60 | 1015.9 |
| 20260502192110 | 68 | 129 | 0.0 | 1.7 | 0.00 | 0.00 | 0.00 | 59 | 1015.9 |
| 20260502191110 | 68 | 128 | 0.0 | 0.9 | 0.00 | 0.00 | 0.00 | 58 | 1015.8 |
| 20260502190109 | 69 | 132 | 0.0 | 0.9 | 0.00 | 0.00 | 0.00 | 57 | 1015.7 |
| 20260502184109 | 71 | 142 | 0.0 | 1.7 | 0.00 | 0.00 | 0.00 | 54 | 1015.6 |
| 20260502182109 | 75 | 122 | 0.0 | 2.6 | 0.00 | 0.00 | 0.00 | 50 | 1015.6 |
| 20260502180109 | 79 | 236 | 0.0 | 0.9 | 0.00 | 0.00 | 0.00 | 41 | 1015.5 |
| 20260502170113 | 82 | 311 | 0.0 | 0.9 | 0.00 | 0.00 | 0.00 | 35 | 1015.5 |
| 20260502163113 | 81 | 287 | 0.9 | 2.6 | 0.00 | 0.00 | 0.00 | 34 | 1015.7 |
| 20260502162113 | 81 | 278 | 0.9 | 3.5 | 0.00 | 0.00 | 0.00 | 34 | 1015.9 |
| 20260502161113 | 81 | 264 | 1.7 | 4.3 | 0.00 | 0.00 | 0.00 | 35 | 1016.2 |
| 20260502160113 | 81 | 255 | 1.7 | 3.5 | 0.00 | 0.00 | 0.00 | 34 | 1016.3 |
| 20260502151112 | 84 | 200 | 0.9 | 2.6 | 0.00 | 0.00 | 0.00 | 31 | 1016.7 |
| 20260502150112 | 84 | 308 | 0.9 | 3.5 | 0.00 | 0.00 | 0.00 | 32 | 1016.8 |
| 20260502140111 | 83 | 258 | 0.9 | 4.3 | 0.00 | 0.00 | 0.00 | 35 | 1017.8 |
| 20260502130111 | 79 | 217 | 1.7 | 5.2 | 0.00 | 0.00 | 0.00 | 38 | 1018.8 |
| 20260502123110 | 79 | 273 | 2.6 | 7.8 | 0.00 | 0.00 | 0.00 | 39 | 1019.2 |
| 20260502122111 | 78 | 160 | 1.7 | 5.2 | 0.00 | 0.00 | 0.00 | 44 | 1019.4 |
| 20260502121110 | 78 | 243 | 2.6 | 7.8 | 0.00 | 0.00 | 0.00 | 42 | 1019.5 |
| 20260502120110 | 78 | 318 | 2.6 | 5.2 | 0.00 | 0.00 | 0.00 | 41 | 1019.6 |
| 20260502114110 | 76 | 184 | 2.6 | 8.7 | 0.00 | 0.00 | 0.00 | 45 | 1019.9 |
| 20260502112110 | 77 | 255 | 2.6 | 7.0 | 0.00 | 0.00 | 0.00 | 42 | 1020.2 |
| 20260502111110 | 77 | 290 | 2.6 | 7.0 | 0.00 | 0.00 | 0.00 | 44 | 1020.4 |
| 20260502110110 | 77 | 278 | 1.7 | 5.2 | 0.00 | 0.00 | 0.00 | 46 | 1020.6 |
| 20260502105110 | 77 | 269 | 2.6 | 5.2 | 0.00 | 0.00 | 0.00 | 44 | 1020.7 |
| 20260502103109 | 76 | 225 | 0.9 | 3.5 | 0.00 | 0.00 | 0.00 | 45 | 1020.9 |
| 20260502102109 | 75 | 219 | 0.9 | 3.5 | 0.00 | 0.00 | 0.00 | 48 | 1021.1 |
| 20260502101109 | 74 | 247 | 2.6 | 7.8 | 0.00 | 0.00 | 0.00 | 46 | 1021.2 |
| 20260502100109 | 74 | 249 | 1.7 | 4.3 | 0.00 | 0.00 | 0.00 | 48 | 1021.3 |
| 20260502091109 | 72 | 260 | 1.7 | 7.0 | 0.00 | 0.00 | 0.00 | 46 | 1021.9 |
| 20260502090108 | 71 | 281 | 2.6 | 7.0 | 0.00 | 0.00 | 0.00 | 47 | 1022.0 |
| 20260502080108 | 66 | 144 | 0.0 | 1.7 | 0.00 | 0.00 | 0.00 | 55 | 1022.5 |
| 20260502071112 | 61 | 98 | 0.0 | 0.9 | 0.00 | 0.00 | 0.00 | 59 | 1022.8 |
| 20260502070112 | 61 | 54 | 0.0 | 1.7 | 0.00 | 0.00 | 0.00 | 59 | 1022.8 |
| 20260502065112 | 60 | 238 | 0.0 | 0.0 | 0.00 | 0.00 | 0.00 | 61 | 1022.9 |
| 20260502063112 | 58 | 126 | 0.0 | 0.9 | 0.00 | 0.00 | 0.00 | 64 | 1022.9 |
| 20260502062112 | 56 | 41 | 0.0 | 0.9 | 0.00 | 0.00 | 0.00 | 65 | 1022.8 |
| 20260502055112 | 53 | 330 | 0.0 | 0.9 | 0.00 | 0.00 | 0.00 | 70 | 1022.9 |
| 20260502054111 | 53 | 245 | 0.0 | 0.9 | 0.00 | 0.00 | 0.00 | 69 | 1022.9 |
| 20260502053111 | 52 | 306 | 0.0 | 0.9 | 0.00 | 0.00 | 0.00 | 70 | 1022.9 |
| 20260502052111 | 52 | 134 | 0.0 | 0.0 | 0.00 | 0.00 | 0.00 | 70 | 1022.8 |
| 20260502051111 | 51 | 110 | 0.0 | 0.9 | 0.00 | 0.00 | 0.00 | 72 | 1022.7 |
| 20260502050111 | 50 | 127 | 0.0 | 0.9 | 0.00 | 0.00 | 0.00 | 75 | 1022.6 |
| 20260502045111 | 49 | 231 | 0.0 | 0.9 | 0.00 | 0.00 | 0.00 | 74 | 1022.7 |
| 20260502043111 | 49 | 124 | 0.0 | 0.9 | 0.00 | 0.00 | 0.00 | 74 | 1022.6 |
| 20260502042111 | 48 | 124 | 0.0 | 0.9 | 0.00 | 0.00 | 0.00 | 76 | 1022.5 |
| 20260502040111 | 49 | 132 | 0.0 | 0.9 | 0.00 | 0.00 | 0.00 | 72 | 1022.7 |
| 20260502033110 | 48 | 288 | 0.0 | 0.0 | 0.00 | 0.00 | 0.00 | 76 | 1022.8 |
| 20260502032110 | 48 | 288 | 0.0 | 0.0 | 0.00 | 0.00 | 0.00 | 76 | 1022.9 |
| 20260502030110 | 48 | 288 | 0.0 | 0.0 | 0.00 | 0.00 | 0.00 | 75 | 1022.7 |
| 20260502025110 | 49 | 288 | 0.0 | 0.0 | 0.00 | 0.00 | 0.00 | 72 | 1022.6 |
| 20260502024110 | 49 | 288 | 0.0 | 0.0 | 0.00 | 0.00 | 0.00 | 72 | 1022.7 |
| 20260502023110 | 49 | 288 | 0.0 | 0.0 | 0.00 | 0.00 | 0.00 | 71 | 1022.7 |
| 20260502021109 | 49 | 281 | 0.0 | 0.0 | 0.00 | 0.00 | 0.00 | 71 | 1022.7 |
| 20260502020110 | 49 | 281 | 0.0 | 0.0 | 0.00 | 0.00 | 0.00 | 72 | 1022.8 |
| 20260502015109 | 49 | 282 | 0.0 | 0.9 | 0.00 | 0.00 | 0.00 | 71 | 1022.8 |
| 20260502014109 | 49 | 281 | 0.0 | 0.0 | 0.00 | 0.00 | 0.00 | 71 | 1022.8 |
| 20260502013109 | 50 | 281 | 0.0 | 0.9 | 0.00 | 0.00 | 0.00 | 69 | 1022.8 |
| 20260502012109 | 50 | 281 | 0.0 | 0.0 | 0.00 | 0.00 | 0.00 | 68 | 1022.8 |
| 20260502011109 | 51 | 281 | 0.0 | 0.9 | 0.00 | 0.00 | 0.00 | 67 | 1022.8 |
| 20260502010109 | 51 | 240 | 0.0 | 0.9 | 0.00 | 0.00 | 0.00 | 66 | 1022.8 |
| 20260502005109 | 50 | 240 | 0.0 | 0.0 | 0.00 | 0.00 | 0.00 | 66 | 1022.7 |
| 20260502004109 | 51 | 240 | 0.0 | 0.0 | 0.00 | 0.00 | 0.00 | 66 | 1022.8 |
| 20260502003109 | 50 | 240 | 0.0 | 0.0 | 0.00 | 0.00 | 0.00 | 66 | 1022.8 |
| 20260502002109 | 51 | 240 | 0.0 | 0.9 | 0.00 | 0.00 | 0.00 | 67 | 1022.9 |
| 20260502001109 | 51 | 120 | 0.0 | 0.0 | 0.00 | 0.00 | 0.00 | 66 | 1022.8 |
| 20260502000109 | 51 | 136 | 0.0 | 0.9 | 0.00 | 0.00 | 0.00 | 67 | 1022.9 |
| 20260501235108 | 51 | 139 | 0.0 | 0.9 | 0.00 | 0.00 | 0.00 | 67 | 1022.9 |
| 20260501234113 | 51 | 139 | 0.0 | 0.0 | 0.00 | 0.00 | 0.00 | 66 | 1023.0 |
| 20260501233113 | 52 | 139 | 0.0 | 0.0 | 0.00 | 0.00 | 0.00 | 66 | 1023.0 |
| 20260501232113 | 52 | 139 | 0.0 | 0.0 | 0.00 | 0.00 | 0.00 | 65 | 1023.1 |
| 20260501231113 | 52 | 139 | 0.0 | 0.9 | 0.00 | 0.00 | 0.00 | 63 | 1023.0 |
| 20260501230113 | 52 | 210 | 0.0 | 0.9 | 0.00 | 0.00 | 0.00 | 64 | 1023.1 |
| 20260501225113 | 52 | 219 | 0.0 | 0.9 | 0.00 | 0.00 | 0.00 | 65 | 1023.1 |
| 20260501224113 | 53 | 83 | 0.0 | 0.9 | 0.00 | 0.00 | 0.00 | 64 | 1023.2 |
| 20260501223113 | 53 | 83 | 0.0 | 0.0 | 0.00 | 0.00 | 0.00 | 63 | 1023.1 |
| 20260501222113 | 54 | 83 | 0.0 | 0.0 | 0.00 | 0.00 | 0.00 | 60 | 1023.1 |
| 20260501221112 | 55 | 83 | 0.0 | 0.9 | 0.00 | 0.00 | 0.00 | 59 | 1022.9 |
| 20260501220112 | 55 | 81 | 0.0 | 0.0 | 0.00 | 0.00 | 0.00 | 59 | 1023.0 |
| 20260501214112 | 57 | 81 | 0.0 | 0.0 | 0.00 | 0.00 | 0.00 | 55 | 1023.0 |
| 20260501213112 | 57 | 84 | 0.9 | 2.6 | 0.00 | 0.00 | 0.00 | 55 | 1023.0 |
| 20260501212112 | 58 | 114 | 0.0 | 1.7 | 0.00 | 0.00 | 0.00 | 55 | 1023.0 |
| 20260501211112 | 58 | 140 | 0.0 | 0.9 | 0.00 | 0.00 | 0.00 | 55 | 1022.9 |
| 20260501210112 | 58 | 155 | 0.0 | 0.9 | 0.00 | 0.00 | 0.00 | 56 | 1022.8 |
| 20260501204111 | 59 | 202 | 0.0 | 0.0 | 0.00 | 0.00 | 0.00 | 57 | 1022.8 |
| 20260501203112 | 60 | 136 | 0.0 | 0.9 | 0.00 | 0.00 | 0.00 | 56 | 1022.8 |
| 20260501202111 | 61 | 127 | 0.0 | 0.9 | 0.00 | 0.00 | 0.00 | 56 | 1022.8 |
| 20260501201111 | 61 | 102 | 0.9 | 4.3 | 0.00 | 0.00 | 0.00 | 57 | 1022.9 |